TimeEDT,TemperatureF,Dew PointF,Humidity,Sea Level PressureIn,VisibilityMPH,Wind Direction,Wind SpeedMPH,Gust SpeedMPH,PrecipitationIn,Events,Conditions,WindDirDegrees,DateUTC
12:52 AM,66.9,64.0,90,29.85,10.0,NW,3.5,-,N/A,,Overcast,310,2012-08-18 04:52:00
1:52 AM,66.0,63.0,90,29.84,10.0,North,3.5,-,0.00,Rain,Light Rain,360,2012-08-18 05:52:00
2:52 AM,64.9,64.0,97,29.85,10.0,Calm,Calm,-,0.00,,Overcast,0,2012-08-18 06:52:00
3:52 AM,64.9,62.1,90,29.87,7.0,Calm,Calm,-,0.07,Rain,Rain,0,2012-08-18 07:52:00
4:52 AM,64.0,61.0,90,29.88,10.0,West,4.6,-,0.02,Rain,Light Rain,260,2012-08-18 08:52:00
5:52 AM,63.0,62.1,97,29.87,10.0,Calm,Calm,-,0.02,,Overcast,0,2012-08-18 09:52:00
6:52 AM,63.0,61.0,93,29.88,10.0,Calm,Calm,-,0.00,,Overcast,0,2012-08-18 10:52:00
9:52 AM,64.9,60.1,84,29.90,10.0,Calm,Calm,-,N/A,,Clear,0,2012-08-18 13:52:00
10:52 AM,69.1,62.1,78,29.90,10.0,Calm,Calm,-,N/A,,Partly Cloudy,0,2012-08-18 14:52:00
11:20 AM,71.6,60.8,69,29.90,10.0,NW,5.8,-,N/A,,Mostly Cloudy,310,2012-08-18 15:20:00
11:40 AM,71.6,60.8,69,29.90,10.0,WNW,4.6,-,N/A,,Mostly Cloudy,300,2012-08-18 15:40:00
11:52 AM,71.1,60.1,68,29.90,10.0,Calm,Calm,-,N/A,,Mostly Cloudy,0,2012-08-18 15:52:00
12:52 PM,73.0,57.9,59,29.89,10.0,Variable,3.5,-,N/A,,Overcast,0,2012-08-18 16:52:00
1:52 PM,75.9,54.0,46,29.87,10.0,NW,8.1,-,N/A,,Mostly Cloudy,310,2012-08-18 17:52:00
2:52 PM,77.0,50.0,39,29.87,10.0,NW,5.8,-,N/A,,Clear,310,2012-08-18 18:52:00
3:52 PM,77.0,48.9,37,29.86,10.0,WNW,8.1,-,N/A,,Clear,290,2012-08-18 19:52:00
4:52 PM,77.0,46.9,34,29.85,10.0,WNW,5.8,-,N/A,,Clear,290,2012-08-18 20:52:00
5:52 PM,75.9,48.0,37,29.85,10.0,WNW,3.5,-,N/A,,Clear,290,2012-08-18 21:52:00
6:52 PM,73.0,50.0,44,29.86,10.0,West,5.8,-,N/A,,Clear,280,2012-08-18 22:52:00
7:52 PM,66.9,54.0,63,29.88,10.0,WNW,4.6,-,N/A,,Clear,290,2012-08-18 23:52:00
8:52 PM,62.1,57.0,84,29.90,10.0,Calm,Calm,-,N/A,,Clear,0,2012-08-19 00:52:00
9:52 PM,60.1,55.9,86,29.91,10.0,Calm,Calm,-,N/A,,Clear,0,2012-08-19 01:52:00
10:52 PM,57.9,55.9,93,29.92,10.0,Calm,Calm,-,N/A,,Clear,0,2012-08-19 02:52:00
11:52 PM,55.0,54.0,96,29.94,10.0,Calm,Calm,-,N/A,,Clear,0,2012-08-19 03:52:00